This is the latest recevied weather packets stored in our database for station/object OE-11372. If no packets are shown the sender has not sent any weather packets the latest 10 day(s).
| Time | Temp. | Humidity | Pressure | Rain* | Wind** | Luminosity | Snow |
|---|---|---|---|---|---|---|---|
| 1787662503 | 18.89° C | 68% | 849.1 hPa | 0 mm | - | 239 W/m² | - |
| 1787661676 | 18.89° C | 68% | 849.1 hPa | 0 mm | - | 288 W/m² | - |
| 1787661303 | 18.33° C | 73% | 849.1 hPa | 0 mm | - | 239 W/m² | - |
| 1787660703 | 18.33° C | 70% | 849.1 hPa | 0 mm | - | 148 W/m² | - |
| 1787660114 | 18.33° C | 71% | 849 hPa | 0 mm | - | 124 W/m² | - |
| 1787659502 | 18.33° C | 69% | 848.9 hPa | 0 mm | - | 157 W/m² | - |
| 1787658903 | 18.33° C | 68% | 848.9 hPa | 0 mm | - | 247 W/m² | - |
| 1787658076 | 18.33° C | 71% | 848.8 hPa | 0 mm | - | 264 W/m² | - |
| 1787657702 | 18.33° C | 70% | 848.7 hPa | 0 mm | - | 313 W/m² | - |
| 1787657102 | 18.33° C | 73% | 848.7 hPa | 0 mm | - | 708 W/m² | - |
| 1787654476 | 17.78° C | 78% | 848.7 hPa | 0 mm | - | 470 W/m² | - |
| 1787654103 | 17.78° C | 80% | 848.7 hPa | 0 mm | - | 494 W/m² | - |
| 1787652303 | 17.78° C | 76% | 848.6 hPa | 0 mm | - | 305 W/m² | - |
| 1787651702 | 17.78° C | 80% | 848.6 hPa | 0 mm | - | 297 W/m² | - |
| 1787650876 | 17.22° C | 80% | 848.6 hPa | 0 mm | - | 206 W/m² | - |
| 1787650503 | 16.67° C | 82% | 848.6 hPa | 0 mm | - | 222 W/m² | - |
| 1787649903 | 16.67° C | 83% | 848.7 hPa | 0 mm | - | 214 W/m² | - |
| 1787649075 | 16.11° C | 82% | 848.6 hPa | 0.25 mm | - | 206 W/m² | - |
| 1787648703 | 16.11° C | 81% | 848.6 hPa | 0.51 mm | - | 181 W/m² | - |
| 1787648103 | 15.56° C | 85% | 848.5 hPa | 0.51 mm | - | 181 W/m² | - |
| 1787647275 | 15.56° C | 86% | 848.5 hPa | 0.76 mm | - | 157 W/m² | - |
| 1787646903 | 15.56° C | 86% | 848.5 hPa | 0.76 mm | - | 157 W/m² | - |
| 1787646303 | 15.56° C | 86% | 848.5 hPa | 0.76 mm | - | 173 W/m² | - |
| 1787645475 | 15.56° C | 88% | 848.6 hPa | 1.02 mm | - | 173 W/m² | - |
| 1787645103 | 15.56° C | 87% | 848.6 hPa | 1.02 mm | - | 132 W/m² | - |
* Rain latest hour (hover to see other rain measurements)
** Current wind speed in m/s (hover to see current wind gust speed)